Stündliche Wetter Labedziewo

Heute, 14 Mai, Freitag

Zeit Temperatur Niederschläge Wind Luftdruck Luftfeuchtigkeit
00:00 +8°C° 0.1 mm 1 m/S 740 mmHg 96%
01:00 +8°C° 0.1 mm 1 m/S 740 mmHg 97%
02:00 +7°C° 0.1 mm 1 m/S 740 mmHg 96%
03:00 +7°C° 0.1 mm 1 m/S 740 mmHg 96%
04:00 +7°C° 0.1 mm 1 m/S 740 mmHg 96%
05:00 +8°C° 0 mm 1 m/S 740 mmHg 93%
06:00 +10°C° 0 mm 1 m/S 740 mmHg 89%
07:00 +11°C° 0 mm 1 m/S 740 mmHg 85%
08:00 +13°C° 0 mm 1 m/S 740 mmHg 79%
09:00 +14°C° 0 mm 2 m/S 741 mmHg 73%
10:00 +15°C° 0 mm 2 m/S 741 mmHg 67%
11:00 +16°C° 0 mm 2 m/S 741 mmHg 64%
12:00 +17°C° 0 mm 3 m/S 741 mmHg 61%
13:00 +17°C° 0 mm 3 m/S 741 mmHg 58%
14:00 +17°C° 0 mm 3 m/S 741 mmHg 59%
15:00 +17°C° 0 mm 3 m/S 741 mmHg 61%
16:00 +17°C° 0 mm 3 m/S 742 mmHg 62%
17:00 +14°C° 0 mm 3 m/S 742 mmHg 70%
18:00 +13°C° 0 mm 3 m/S 742 mmHg 79%
19:00 +12°C° 0 mm 2 m/S 742 mmHg 87%
20:00 +10°C° 0 mm 2 m/S 743 mmHg 89%
21:00 +10°C° 0 mm 1 m/S 743 mmHg 90%
22:00 +9°C° 0 mm 1 m/S 743 mmHg 92%
23:00 +9°C° 0 mm 1 m/S 743 mmHg 92%

Morgen, 15 Mai, Samstag

Zeit Temperatur Niederschläge Wind Luftdruck Luftfeuchtigkeit
00:00 +8°C° 0 mm 1 m/S 744 mmHg 92%
01:00 +7°C° 0 mm 0 m/S 744 mmHg 92%
02:00 +8°C° 0 mm 1 m/S 744 mmHg 93%
03:00 +9°C° 0 mm 1 m/S 744 mmHg 93%
04:00 +9°C° 0 mm 1 m/S 744 mmHg 94%
05:00 +10°C° 0 mm 1 m/S 745 mmHg 92%
06:00 +11°C° 0 mm 1 m/S 745 mmHg 91%
07:00 +12°C° 0 mm 2 m/S 745 mmHg 90%
08:00 +13°C° 0 mm 2 m/S 745 mmHg 86%
09:00 +14°C° 0 mm 2 m/S 745 mmHg 82%
10:00 +14°C° 0 mm 3 m/S 746 mmHg 79%
11:00 +14°C° 0.1 mm 3 m/S 746 mmHg 79%
12:00 +14°C° 0.1 mm 3 m/S 746 mmHg 79%
13:00 +15°C° 0.1 mm 2 m/S 746 mmHg 79%
14:00 +15°C° 0.1 mm 2 m/S 746 mmHg 80%
15:00 +15°C° 0.1 mm 2 m/S 746 mmHg 80%
16:00 +15°C° 0.1 mm 1 m/S 746 mmHg 81%
17:00 +15°C° 0.1 mm 1 m/S 746 mmHg 84%
18:00 +14°C° 0.1 mm 1 m/S 746 mmHg 87%
19:00 +12°C° 0.1 mm 0 m/S 746 mmHg 90%
20:00 +12°C° 0 mm 1 m/S 746 mmHg 91%
21:00 +11°C° 0 mm 1 m/S 746 mmHg 92%
22:00 +11°C° 0 mm 1 m/S 746 mmHg 93%
23:00 +10°C° 0 mm 1 m/S 746 mmHg 93%

übermorgen, 16 Mai, Sonntag

Zeit Temperatur Niederschläge Wind Luftdruck Luftfeuchtigkeit
00:00 +9°C° 0 mm 2 m/S 746 mmHg 94%
01:00 +9°C° 0 mm 2 m/S 746 mmHg 94%
02:00 +9°C° 0 mm 2 m/S 746 mmHg 94%
03:00 +9°C° 0 mm 2 m/S 746 mmHg 94%
04:00 +8°C° 0 mm 2 m/S 746 mmHg 94%
05:00 +10°C° 0 mm 2 m/S 746 mmHg 92%
06:00 +11°C° 0 mm 3 m/S 746 mmHg 90%
07:00 +12°C° 0 mm 3 m/S 746 mmHg 88%
08:00 +14°C° 0.1 mm 4 m/S 745 mmHg 81%
09:00 +16°C° 0.1 mm 5 m/S 745 mmHg 75%
10:00 +19°C° 0.1 mm 6 m/S 745 mmHg 69%
11:00 +17°C° 0.6 mm 5 m/S 745 mmHg 74%
12:00 +16°C° 0.6 mm 5 m/S 744 mmHg 80%
13:00 +16°C° 0.6 mm 5 m/S 744 mmHg 85%
14:00 +15°C° 0.6 mm 4 m/S 744 mmHg 86%
15:00 +15°C° 0.6 mm 4 m/S 744 mmHg 87%
16:00 +14°C° 0.6 mm 3 m/S 744 mmHg 88%
17:00 +13°C° 0.1 mm 3 m/S 744 mmHg 90%
18:00 +14°C° 0.1 mm 2 m/S 744 mmHg 92%
19:00 +13°C° 0.1 mm 2 m/S 744 mmHg 94%
20:00 +12°C° 0.1 mm 1 m/S 744 mmHg 94%
21:00 +12°C° 0.1 mm 1 m/S 744 mmHg 95%
22:00 +12°C° 0.1 mm 1 m/S 744 mmHg 95%
23:00 +11°C° 0.1 mm 1 m/S 744 mmHg 95%

17 Mai, Montag

Zeit Temperatur Niederschläge Wind Luftdruck Luftfeuchtigkeit
00:00 +11°C° 0.1 mm 1 m/S 744 mmHg 95%
01:00 +11°C° 0.1 mm 1 m/S 744 mmHg 95%
02:00 +9°C° 0 mm 2 m/S 745 mmHg 95%
03:00 +9°C° 0 mm 2 m/S 745 mmHg 94%
04:00 +8°C° 0 mm 2 m/S 745 mmHg 94%
05:00 +10°C° 0 mm 2 m/S 745 mmHg 89%
06:00 +11°C° 0 mm 3 m/S 745 mmHg 84%
07:00 +13°C° 0 mm 3 m/S 745 mmHg 79%
08:00 +14°C° 0 mm 3 m/S 745 mmHg 72%
09:00 +16°C° 0 mm 3 m/S 745 mmHg 65%
10:00 +18°C° 0 mm 4 m/S 745 mmHg 58%
11:00 +18°C° 0.3 mm 4 m/S 745 mmHg 60%
12:00 +18°C° 0.3 mm 4 m/S 745 mmHg 63%
13:00 +18°C° 0.3 mm 4 m/S 745 mmHg 65%
14:00 +18°C° 0.4 mm 4 m/S 744 mmHg 69%
15:00 +17°C° 0.4 mm 4 m/S 744 mmHg 73%
16:00 +17°C° 0.4 mm 4 m/S 744 mmHg 77%
17:00 +16°C° 0.3 mm 3 m/S 744 mmHg 82%
18:00 +14°C° 0.3 mm 3 m/S 744 mmHg 86%
19:00 +14°C° 0.3 mm 2 m/S 744 mmHg 90%
20:00 +13°C° 0 mm 2 m/S 744 mmHg 92%
21:00 +12°C° 0 mm 2 m/S 744 mmHg 93%
22:00 +10°C° 0 mm 2 m/S 744 mmHg 95%
23:00 +10°C° 0 mm 2 m/S 744 mmHg 95%

18 Mai, Dienstag

Zeit Temperatur Niederschläge Wind Luftdruck Luftfeuchtigkeit
00:00 +10°C° 0 mm 2 m/S 744 mmHg 95%
01:00 +9°C° 0 mm 2 m/S 744 mmHg 95%
02:00 +9°C° 0 mm 2 m/S 744 mmHg 95%
03:00 +9°C° 0 mm 2 m/S 744 mmHg 95%
04:00 +9°C° 0 mm 2 m/S 744 mmHg 96%
05:00 +10°C° 0 mm 2 m/S 744 mmHg 93%
06:00 +10°C° 0 mm 3 m/S 745 mmHg 91%
07:00 +11°C° 0 mm 3 m/S 745 mmHg 89%
08:00 +12°C° 0.2 mm 3 m/S 745 mmHg 84%
09:00 +13°C° 0.2 mm 3 m/S 745 mmHg 78%
10:00 +14°C° 0.2 mm 3 m/S 745 mmHg 73%
11:00 +14°C° 0.5 mm 3 m/S 745 mmHg 74%
12:00 +14°C° 0.5 mm 3 m/S 745 mmHg 76%
13:00 +14°C° 0.5 mm 3 m/S 745 mmHg 77%
14:00 +14°C° 0.7 mm 3 m/S 745 mmHg 77%
15:00 +14°C° 0.7 mm 3 m/S 745 mmHg 77%
16:00 +14°C° 0.7 mm 3 m/S 745 mmHg 78%
17:00 +13°C° 0.4 mm 3 m/S 745 mmHg 82%
18:00 +12°C° 0.4 mm 3 m/S 745 mmHg 86%
19:00 +12°C° 0.4 mm 2 m/S 746 mmHg 90%
20:00 +10°C° 0 mm 2 m/S 746 mmHg 92%
21:00 +10°C° 0 mm 1 m/S 746 mmHg 94%
22:00 +9°C° 0 mm 1 m/S 746 mmHg 96%
23:00 +9°C° 0 mm 1 m/S 746 mmHg 96%

19 Mai, Mittwoch

Zeit Temperatur Niederschläge Wind Luftdruck Luftfeuchtigkeit
00:00 +9°C° 0 mm 1 m/S 746 mmHg 96%
01:00 +9°C° 0 mm 1 m/S 746 mmHg 96%
02:00 +9°C° 0.1 mm 1 m/S 746 mmHg 96%
03:00 +8°C° 0.1 mm 2 m/S 747 mmHg 97%
04:00 +8°C° 0.1 mm 2 m/S 747 mmHg 97%
05:00 +9°C° 0 mm 3 m/S 747 mmHg 94%
06:00 +10°C° 0 mm 3 m/S 747 mmHg 90%
07:00 +11°C° 0 mm 4 m/S 748 mmHg 87%
08:00 +12°C° 0.2 mm 4 m/S 748 mmHg 81%
09:00 +13°C° 0.2 mm 5 m/S 748 mmHg 74%
10:00 +14°C° 0.2 mm 5 m/S 748 mmHg 68%
11:00 +14°C° 0.3 mm 5 m/S 749 mmHg 70%
12:00 +13°C° 0.3 mm 5 m/S 749 mmHg 71%
13:00 +13°C° 0.3 mm 5 m/S 749 mmHg 73%
14:00 +13°C° 0.4 mm 4 m/S 749 mmHg 75%
15:00 +13°C° 0.4 mm 4 m/S 750 mmHg 76%
16:00 +12°C° 0.4 mm 4 m/S 750 mmHg 78%
17:00 +11°C° 0.3 mm 3 m/S 750 mmHg 81%
18:00 +11°C° 0.3 mm 3 m/S 750 mmHg 85%
19:00 +10°C° 0.3 mm 2 m/S 751 mmHg 89%
20:00 +9°C° 0 mm 2 m/S 751 mmHg 91%
21:00 +8°C° 0 mm 2 m/S 751 mmHg 92%
22:00 +7°C° 0 mm 2 m/S 752 mmHg 94%
23:00 +7°C° 0 mm 2 m/S 752 mmHg 94%
Mehr zeigen

Wir brauchen deine Erlaubnis

Meteoprog und unser Service Anbieter werden persönliche Daten aufbewahren, so wie Cookies, Geräte Bezeichnung oder ähnliche Technologien von deinem Gerät und Prozess, so wie Persönliche Daten Inhalte und Werbungen, genauso wie social Media und den Verkehr zu analysieren.

  • Aufbewahrung und/oder Zugang zu deiner Geräte Informationen.

    Cookies, Geräte Bezeichnung oder andere Informationen, können aufbewahrt oder Zugang zu deinem Gerät erhalten, für den Grund, der oben angegeben wird.

  • Personalisierte Werbung und Inhalte, Messungen, Einblick in das Publikum und Produkt Entwicklung.

    Werbungen und Inhalte können personalisiert werden, basierend auf ein Profil. Mehr Daten können besser personalisierte Werbungen und Inhalte hinzufügen. Werbung und Inhalte können gezeigt und gemessen werden. Einblicke über das Publikum, welche die Werbung gesehen haben und den Inhalt, können abgeleitet werden. So wie Daten können genutzt werden, um es zu verbessern oder die Benutzer Erfahrung zu verbessern das System und die Software.

Wenn du “Ich stimme zu” klickst, erlaubst du uns, die Cookies zu benutzen die Geräte Bezeichnung, den Web oder ähnliche Technologien zu benutzen. Deine Settings, können in deinem Gerät bei deinem Browser geändert werden.

Für den bestimmten Zweck, berechtigten Interessen beruhen darauf, mehr als auf den Inhalt. Du kannst mehr darüber in unseren Privaten und Cookie Politik lesen.